Simultaneous Nadir Overpasses (SNOs) Predictions

Prediction of SNOs between AQUA and GOES-15 Satellite Orbit:

Table of predicted SNOs for the next 14.0 days since TLE Epoch: 9/14/2024
Index Date Time (AQUA) AQUA Lat,Lon GOES-15 Lat,Lon Distance(km) Time Diff (sec)
1 09/14/2024 09:54:36 0.55, 65.57 -0.34, 61.36 478.33 80
2 09/14/2024 22:14:28 0.43, 60.75 0.32, 61.38 70.35 80
3 09/16/2024 21:56:54 -0.46, 65.06 0.32, 61.37 419.37 80
4 09/17/2024 10:16:54 -0.53, 60.21 -0.31, 61.36 129.97 80
5 09/19/2024 09:59:16 0.40, 64.52 -0.31, 61.35 361.79 80
6 09/19/2024 22:19:06 0.65, 59.73 0.29, 61.35 184.72 80
7 09/21/2024 22:01:24 -0.26, 64.06 0.30, 61.35 307.49 80
8 09/22/2024 10:21:23 -0.74, 59.22 -0.29, 61.35 242.82 80
9 09/24/2024 10:03:37 0.16, 63.57 -0.29, 61.36 250.70 80
10 09/24/2024 22:23:26 0.84, 58.77 0.27, 61.35 293.97 80
11 09/26/2024 22:05:37 -0.10, 63.13 0.27, 61.36 200.34 80
12 09/27/2024 10:25:34 -0.90, 58.30 -0.25, 61.38 350.76 80
